ULLIEFLP

Guest
Details From ULLI - Saint Petersburg Pulkovo
To EFLP - Lappeenranta
Flight Number -
Tags Generated
Created
Modified
Stats Distance 97 nm / 180 km
Max Altitude 0 ft / 0 m
Waypoints 2
Social Downloads 2
Likes 0
Share VATSIM

Download

Looking for another format? Having issues loading an existing format? Contact us
Advertisement - Login to hide

Notes

Generated

Route

ULLI EFLP

ID Type Via Altitude Latitude Longitude Leg Dist Tot Dist Heading (true) Name
O ULLI APT - 0 ft / 0 m 59.80973˚ 30.24537˚ - 0 nm - -
O EFLP APT - 0 ft / 0 m 61.04012˚ 28.12314˚ 97 nm 97 nm 321° / 319° -

Altitude Profile

Advertisement - Login to hide

ULLI

Details ICAO ULLI (LED)
Name Saint Petersburg Pulkovo
Region Russia
Timezone Europe/Moscow (UTC+3.0)
Stats Elevation 78 ft / 24 m (AMSL)
Location 59.800292° 30.262504°
Runways 2
Magnetic Variation 10.763° E

METAR

ULLI 271600Z 05005MPS 010V070 CAVOK 19/M01 Q1026 R88/090060 NOSIG

Decode

TAF

TAF ULLI 271355Z 2715/2815 30003MPS 9999 SCT020 TEMPO 2715/2722 35003MPS BECMG 2722/2800 08003MPS BECMG 2808/2810 23003MPS

Decode

Departure Runways

ID Width Length Bearing (true) Bearing (mag) Surface Threshold Offset Overrun Length
10L 197 ft / 60 m 11,115 ft / 3,388 m 106.38° 95.62° Concrete 0 ft / 0 m 235 ft / 72 m
10R 197 ft / 60 m 12,365 ft / 3,769 m 106.40° 95.64° Concrete 0 ft / 0 m 220 ft / 67 m
28L 197 ft / 60 m 12,365 ft / 3,769 m 286.46° 275.70° Concrete 0 ft / 0 m 260 ft / 79 m
28R 197 ft / 60 m 11,115 ft / 3,388 m 286.44° 275.68° Concrete 0 ft / 0 m 240 ft / 73 m

EFLP

Details ICAO EFLP (LPP)
Name Lappeenranta
Region Finland
Timezone Europe/Helsinki (UTC+3.0)
Stats Elevation 349 ft / 106 m (AMSL)
Location 61.044550° 28.144400°
Runways 1
Magnetic Variation 10.478° E

METAR

EFLP 271550Z AUTO 01008KT 330V050 CAVOK 18/M01 Q1028

Decode

TAF

Not found

Destination Runways

ID Width Length Bearing (true) Bearing (mag) Surface Threshold Offset Overrun Length
06 197 ft / 60 m 8,177 ft / 2,492 m 66.69° 56.21° Asphalt 0 ft / 0 m 210 ft / 64 m
24 197 ft / 60 m 8,177 ft / 2,492 m 246.72° 236.24° Asphalt 0 ft / 0 m 200 ft / 61 m

Approach Navaids

Runway Type Ident Frequency Range Bearing (true) Bearing (mag) Slope Elevation
06 Localiser LP 109.90 MHz 18 nm / 33 km 66.72° 56.24° - 349 ft / 106 m (AMSL)
06 Glidescope LP 109.90 MHz 10 nm / 19 km 66.70° 56.23° 3.00° 349 ft / 106 m (AMSL)

Popular Alternatives